FLOCK 1C 3

导读

FLOCK 1C 3是美国Planet公司研发的鸽群(Flock)商业遥感星座中的一颗3U立方星,于2014年6月19日发射升空,设计运行在近太阳同步轨道。作为Planet公司早期批量发射的遥感卫星之一,它可提供中高分辨率遥感影像,服务商业观测与情报获取。该卫星无动力装置,依靠大气阻力实现轨道相位调整,受空间环境影响已陨落,属于鸽群一代较早批次任务卫星,验证了立方星组网遥感技术。

Basic Information
目录编号:
40041
目录名称:
FLOCK 1C 3
国际标识:
2014-033AH
轨道中心:
EARTH
卫星名称:
FLOCK 1C 3
卫星全名:
--
卫星状态:
已陨落 最后检测时间 2025-01-03
发射日期:
2014-06-19 UTC
国别 :
美国 (US)
星等 :
--
Orbit Information
数据来源 国际轨道数据
星历时间: 2024-12-26T22:34:31+0800
轨道信息已过期532天
半长轴: 6547.457km
偏心率: 0.0009465
轨道倾角: 98.011°
近地点辐角 190.352°
升交点赤经 6.248°
平近点角 169.758°
近地点: 163.124km
远地点: 175.52km
周期: 87.876分钟
每日圈数: 16.386788
Detailed Information
使用方式:
暂无